Rutherfordton, NC

1:18 PM EDT on March 25, 2017 (GMT -0400)
Rutherford County-Marchman

Weather History for KFQD - May, 2013

Change the Weather History Date:

Sunday, May 5, 2013

  Actual Average (KAVL) Record (KAVL)
Temperature  
Mean Temperature 52 °F -  
Max Temperature 56 °F 72 °F 90 °F (1950)
Min Temperature 47 °F 43 °F 32 °F (1997)
Degree Days  
Heating Degree Days 14    
Growing Degree Days 2 (Base 50)    
Moisture  
Dew Point 50 °F    
Average Humidity 95    
Maximum Humidity 98    
Minimum Humidity 90    
Precipitation  
Precipitation 2.99 in - - ()
Sea Level Pressure  
Sea Level Pressure 29.93 in    
Wind  
Wind Speed 7 mph (NE)    
Max Wind Speed 16 mph    
Max Gust Speed 25 mph    
Visibility 5 miles    
Events Rain    
Averages and records for this station are not official NWS values.
T = Trace of Precipitation, MM = Missing Value Source: NWS Daily Summary

Daily Weather History Graph

Daily Weather History Graph

Search for Another Location

Airport or City:

Trip Planner

Search our weather history database for the weather conditions in past years. The results will help you decide how hot, cold, wet, or windy it might be!

Date:

Astronomy

May. 05, 2013 Rise Set
Actual Time 6:31 AM EDT 8:17 PM EDT
Civil Twilight 6:04 AM EDT 8:45 PM EDT
Nautical Twilight 5:31 AM EDT 9:18 PM EDT
Astronomical Twilight 4:55 AM EDT 9:53 PM EDT
Moon 3:52 AM EDT (5/5) 4:23 PM EDT (5/5)
Length of Visible Light 14h 40m
Length of Day
13h 45m
Waning Crescent, 18% of the Moon is Illuminated
May 5
Waning Crescent
May 9
New
May 18
First Quarter
May 25
Full
May 31
Last Quarter

Hourly Weather History & Observations

Time (EDT) Temp. Dew Point Humidity Pressure Visibility Wind Dir Wind Speed Gust Speed Precip Events Conditions
12:15 AM 51.4 °F 50.5 °F 97% 30.02 in 4.0 mi NE 9.2 mph - 0.04 in Rain Rain
12:35 AM 51.8 °F 50.7 °F 96% 30.02 in 7.0 mi NE 5.8 mph - 0.08 in Rain Rain
12:55 AM 52.7 °F 50.7 °F 93% 30.03 in 10.0 mi ENE 6.9 mph - 0.09 in Rain Light Rain
1:15 AM 52.7 °F 50.9 °F 94% 30.02 in 10.0 mi ENE 6.9 mph - N/A Rain Light Rain
1:35 AM 52.7 °F 50.9 °F 94% 30.01 in 10.0 mi ENE 8.1 mph - 0.01 in Rain Light Rain
1:55 AM 52.7 °F 50.7 °F 93% 29.99 in 10.0 mi ENE 8.1 mph - 0.02 in Rain Rain
2:15 AM 52.3 °F 50.7 °F 94% 29.99 in 4.0 mi East 12.7 mph 20.7 mph 0.05 in Rain Rain
2:35 AM 52.2 °F 50.5 °F 94% 29.98 in 7.0 mi ENE 10.4 mph 17.3 mph 0.07 in Rain Rain
2:55 AM 52.2 °F 50.4 °F 94% 29.97 in 4.0 mi East 6.9 mph 19.6 mph 0.12 in Rain Rain
3:15 AM 52.0 °F 50.0 °F 93% 29.95 in 7.0 mi ENE 8.1 mph 17.3 mph 0.03 in Rain Light Rain
3:35 AM 51.8 °F 49.5 °F 92% 29.94 in 10.0 mi ENE 6.9 mph 19.6 mph 0.03 in Rain Light Rain
3:55 AM 51.8 °F 49.3 °F 91% 29.94 in 10.0 mi ENE 8.1 mph 19.6 mph 0.04 in   Light Drizzle
4:15 AM 51.8 °F 49.3 °F 91% 29.94 in 5.0 mi NNE 8.1 mph - 0.02 in Rain Rain
4:35 AM 51.8 °F 49.5 °F 92% 29.95 in 10.0 mi ENE 5.8 mph - 0.03 in Rain Light Rain
4:55 AM 51.8 °F 49.1 °F 90% 29.97 in 4.0 mi ENE 5.8 mph - 0.10 in Rain Heavy Rain
5:15 AM 50.9 °F 48.9 °F 93% 29.97 in 4.0 mi NE 6.9 mph - 0.08 in Rain Rain
5:35 AM 50.4 °F 48.9 °F 95% 29.92 in 2.5 mi ENE 16.1 mph 25.3 mph 0.21 in Rain Heavy Rain
5:55 AM 50.0 °F 48.4 °F 94% 29.94 in 10.0 mi NE 6.9 mph - 0.25 in Rain Rain
6:15 AM 49.6 °F 47.7 °F 93% 29.94 in 7.0 mi NNE 8.1 mph - 0.01 in Rain Light Rain
6:35 AM 49.1 °F 47.7 °F 95% 29.93 in 4.0 mi NE 8.1 mph - 0.06 in Rain Heavy Rain
6:55 AM 48.4 °F 47.1 °F 95% 29.93 in 7.0 mi NNE 8.1 mph - 0.12 in Rain Rain
7:15 AM 48.6 °F 46.8 °F 93% 29.93 in 7.0 mi NE 9.2 mph 16.1 mph 0.01 in Rain Rain
7:35 AM 48.4 °F 46.8 °F 94% 29.94 in 7.0 mi WNW 3.5 mph - 0.03 in Rain Rain
7:55 AM 47.8 °F 46.8 °F 96% 29.95 in 7.0 mi NW 3.5 mph - 0.05 in Rain Rain
8:15 AM 47.3 °F 46.4 °F 97% 29.96 in 7.0 mi Calm Calm - 0.02 in Rain Light Rain
8:35 AM 47.3 °F 46.4 °F 97% 29.96 in 7.0 mi NNE 9.2 mph - 0.02 in Rain Heavy Rain
8:55 AM 47.5 °F 46.4 °F 96% 29.94 in 1.5 mi NNE 9.2 mph 16.1 mph 0.15 in Rain Heavy Rain
9:15 AM 47.7 °F 46.4 °F 95% 29.94 in 5.0 mi North 10.4 mph - 0.02 in Rain Light Rain
9:35 AM 47.8 °F 46.6 °F 95% 29.95 in 2.5 mi NNE 6.9 mph - 0.06 in Rain Heavy Rain
9:55 AM 47.7 °F 46.6 °F 96% 29.95 in 2.5 mi NNE 5.8 mph - 0.14 in Rain Heavy Rain
10:15 AM 47.8 °F 46.9 °F 97% 29.96 in 2.5 mi SSW 3.5 mph - 0.05 in Rain Heavy Rain
10:35 AM 48.2 °F 47.3 °F 97% 29.95 in 2.0 mi Calm Calm - 0.14 in Rain Heavy Rain
10:55 AM 49.1 °F 47.5 °F 94% 29.95 in 2.5 mi NNE 10.4 mph 20.7 mph 0.21 in Rain Heavy Rain
11:15 AM 49.1 °F 47.5 °F 94% 29.97 in 4.0 mi Calm Calm - 0.04 in Rain Rain
11:35 AM 48.7 °F 47.7 °F 96% 29.96 in 4.0 mi ENE 5.8 mph - 0.08 in Rain Rain
11:55 AM 49.1 °F 47.3 °F 93% 29.96 in 3.0 mi NNE 5.8 mph - 0.13 in Rain Rain
12:15 PM 48.2 °F 47.3 °F 97% 29.98 in 3.0 mi Calm Calm - 0.06 in Rain Rain
12:35 PM 48.4 °F 47.8 °F 98% 29.96 in 2.5 mi NNE 6.9 mph - 0.12 in Rain Rain
12:55 PM 48.9 °F 48.2 °F 97% 29.96 in 3.0 mi ENE 9.2 mph - 0.17 in Rain Rain
1:15 PM 49.5 °F 48.2 °F 95% 29.97 in 5.0 mi ENE 8.1 mph - 0.04 in Rain Rain
1:35 PM 49.5 °F 47.7 °F 94% 29.94 in 5.0 mi ENE 13.8 mph 23.0 mph 0.08 in Rain Rain
2:15 PM 50.9 °F 48.4 °F 91% 29.92 in 3.0 mi ENE 11.5 mph 19.6 mph 0.04 in Rain Rain
2:35 PM 51.6 °F 49.3 °F 92% 29.91 in 10.0 mi ENE 11.5 mph 21.9 mph 0.05 in   Light Drizzle
2:55 PM 52.0 °F 49.5 °F 91% 29.93 in 7.0 mi ESE 5.8 mph 17.3 mph 0.06 in Rain Light Rain
3:15 PM 50.9 °F 49.3 °F 94% 29.91 in 2.5 mi ENE 15.0 mph 20.7 mph 0.06 in Rain Heavy Rain
3:35 PM 51.4 °F 50.4 °F 96% 29.90 in 1.8 mi Calm Calm - 0.14 in Rain Rain
3:55 PM 51.8 °F 50.5 °F 95% 29.94 in 4.0 mi Calm Calm - 0.18 in Rain Rain
4:15 PM 51.6 °F 50.4 °F 95% 29.92 in 1.5 mi ENE 5.8 mph - 0.10 in Rain Heavy Rain
4:35 PM 50.0 °F 48.9 °F 96% 29.91 in 4.0 mi North 8.1 mph - 0.14 in Rain Heavy Rain
4:55 PM 49.6 °F 49.1 °F 98% 29.90 in 3.0 mi NNE 6.9 mph - 0.18 in Rain Rain
5:15 PM 49.6 °F 48.7 °F 97% 29.91 in 3.0 mi Calm Calm - 0.03 in Rain Light Rain
5:35 PM 49.5 °F 48.9 °F 98% 29.89 in 4.0 mi North 5.8 mph - 0.07 in Rain Rain
5:55 PM 49.5 °F 48.9 °F 98% 29.89 in 4.0 mi North 3.5 mph - 0.10 in   Heavy Drizzle
6:15 PM 49.5 °F 48.9 °F 98% 29.87 in 3.0 mi NNE 6.9 mph - 0.02 in Rain Rain
6:35 PM 49.6 °F 48.9 °F 97% 29.87 in 7.0 mi NE 8.1 mph - 0.04 in   Heavy Drizzle
6:55 PM 50.4 °F 49.1 °F 95% 29.86 in 10.0 mi NE 6.9 mph - 0.04 in   Drizzle
7:15 PM 51.8 °F 50.5 °F 95% 29.86 in 4.0 mi ENE 9.2 mph - 0.02 in Rain Rain
7:35 PM 52.2 °F 50.9 °F 95% 29.86 in 5.0 mi NE 6.9 mph - 0.05 in Rain Light Rain
8:15 PM 52.7 °F 51.8 °F 97% 29.87 in 5.0 mi NE 4.6 mph - 0.04 in Rain Rain
8:35 PM 52.9 °F 52.0 °F 97% 29.87 in 4.0 mi NE 6.9 mph - 0.11 in Rain Heavy Rain
8:55 PM 53.6 °F 52.7 °F 97% 29.86 in 2.5 mi NE 6.9 mph - 0.22 in Rain Heavy Rain
9:15 PM 54.0 °F 53.1 °F 97% 29.85 in 5.0 mi ENE 6.9 mph - 0.04 in Rain Rain
9:35 PM 54.5 °F 53.6 °F 97% 29.85 in 5.0 mi ENE 10.4 mph - 0.07 in Rain Rain
9:55 PM 54.9 °F 54.0 °F 97% 29.85 in 4.0 mi East 8.1 mph - 0.15 in Rain Heavy Rain
10:35 PM 55.8 °F 55.0 °F 97% 29.85 in 4.0 mi East 9.2 mph 16.1 mph 0.11 in Rain Heavy Rain
10:55 PM 55.9 °F 55.4 °F 98% 29.85 in 5.0 mi ESE 8.1 mph - 0.17 in Rain Rain
11:15 PM 56.3 °F 55.6 °F 97% 29.85 in 7.0 mi East 11.5 mph 16.1 mph 0.03 in Rain Heavy Rain
11:35 PM 56.1 °F 55.2 °F 97% 29.86 in 4.0 mi South 12.7 mph 18.4 mph 0.13 in Rain Heavy Rain
11:55 PM 55.4 °F 54.1 °F 96% 29.86 in 4.0 mi SE 10.4 mph - 0.17 in Rain Rain